{"data":{"norad_id":53967,"epoch":"2026-09-20T17:44:35.240928Z","epoch_age_seconds":65963,"freshness":"FRESH","line1":"1 53967U 22125D   26263.73929677  .00000185  00000+0  16605-4 0  9996","line2":"2 53967  53.1614  60.4399 0001349  79.3411 280.7744 15.34392020218872","mean_motion":15.3439202,"eccentricity":0.0001349,"inclination_deg":53.1614,"raan_deg":60.4399,"arg_perigee_deg":79.3411,"mean_anomaly_deg":280.7744,"bstar":1.6605e-5,"rev_number":21887,"period_min":93.848246160717,"perigee_km":461.8041260036,"apogee_km":463.64979109962,"semimajor_km":6840.8639585516,"source":"CELESTRAK","updated_at":"2026-09-21T09:00:33.039444Z"}}